• In Spain
  • List of Countries
  • For 7 days
  • Water Temperature
  • Satellite Maps
  • Weather Map
  • Weather Widgets
  • user-avatar
    Login

    Hourly Weather Kyn

    Today, 22 October, Monday

    Time Temperature Precipitation Wind Pressure Humidity
    00:00 -4°C° 0 mm 2 mps 740 mmHg 86%
    01:00 -4°C° 0 mm 2 mps 740 mmHg 86%
    02:00 -4°C° 0 mm 2 mps 740 mmHg 86%
    03:00 -4°C° 0 mm 2 mps 740 mmHg 85%
    04:00 -2°C° 0 mm 1 mps 740 mmHg 87%
    05:00 -2°C° 0 mm 1 mps 740 mmHg 88%
    06:00 -2°C° 0 mm 1 mps 740 mmHg 89%
    07:00 -2°C° 0 mm 1 mps 740 mmHg 89%
    08:00 -3°C° 0 mm 2 mps 740 mmHg 87%
    09:00 -2°C° 0 mm 2 mps 740 mmHg 84%
    10:00 -1°C° 0 mm 3 mps 740 mmHg 81%
    11:00 0°C° 0 mm 3 mps 740 mmHg 78%
    12:00 0°C° 0 mm 3 mps 740 mmHg 75%
    13:00 0°C° 0 mm 4 mps 740 mmHg 71%
    14:00 0°C° 0 mm 4 mps 739 mmHg 72%
    15:00 -1°C° 0 mm 4 mps 739 mmHg 73%
    16:00 -1°C° 0 mm 4 mps 738 mmHg 73%
    17:00 -1°C° 0 mm 4 mps 738 mmHg 75%
    18:00 -1°C° 0 mm 4 mps 737 mmHg 77%
    19:00 -2°C° 0 mm 5 mps 737 mmHg 78%
    20:00 -2°C° 0 mm 5 mps 736 mmHg 79%
    21:00 -2°C° 0 mm 5 mps 735 mmHg 79%
    22:00 -2°C° 0 mm 5 mps 735 mmHg 80%
    23:00 -2°C° 0 mm 6 mps 734 mmHg 81%

    Tomorrow, 23 October, Tuesday

    Time Temperature Precipitation Wind Pressure Humidity
    00:00 -2°C° 0 mm 6 mps 734 mmHg 82%
    01:00 -2°C° 0 mm 6 mps 733 mmHg 83%
    02:00 -2°C° 0 mm 6 mps 733 mmHg 83%
    03:00 -1°C° 0 mm 6 mps 733 mmHg 83%
    04:00 -1°C° 0 mm 6 mps 732 mmHg 84%
    05:00 -1°C° 0 mm 6 mps 732 mmHg 84%
    06:00 -2°C° 0 mm 6 mps 732 mmHg 85%
    07:00 -2°C° 0 mm 6 mps 731 mmHg 85%
    08:00 -1°C° 0 mm 6 mps 731 mmHg 84%
    09:00 -1°C° 0 mm 6 mps 731 mmHg 83%
    10:00 -1°C° 0 mm 6 mps 731 mmHg 83%
    11:00 +1°C° 0 mm 6 mps 731 mmHg 83%
    12:00 +1°C° 0 mm 6 mps 731 mmHg 83%
    13:00 +2°C° 0 mm 6 mps 731 mmHg 84%
    14:00 +2°C° 0.1 mm 6 mps 731 mmHg 85%
    15:00 +2°C° 0.1 mm 5 mps 731 mmHg 87%
    16:00 +2°C° 0.1 mm 5 mps 730 mmHg 89%
    17:00 +2°C° 0 mm 6 mps 730 mmHg 88%
    18:00 +2°C° 0 mm 6 mps 730 mmHg 87%
    19:00 +3°C° 0 mm 6 mps 729 mmHg 86%
    20:00 +3°C° 0.1 mm 6 mps 729 mmHg 84%
    21:00 +3°C° 0.1 mm 6 mps 729 mmHg 82%
    22:00 +3°C° 0.1 mm 5 mps 729 mmHg 79%
    23:00 +2°C° 0.1 mm 5 mps 728 mmHg 79%

    Day after tomorrow, 24 October, Wednesday

    Time Temperature Precipitation Wind Pressure Humidity
    00:00 +2°C° 0.1 mm 5 mps 728 mmHg 78%
    01:00 +2°C° 0.1 mm 5 mps 728 mmHg 77%
    02:00 +2°C° 0.2 mm 5 mps 728 mmHg 79%
    03:00 +2°C° 0.2 mm 5 mps 727 mmHg 81%
    04:00 +2°C° 0.2 mm 5 mps 727 mmHg 83%
    05:00 +3°C° 0 mm 4 mps 727 mmHg 85%
    06:00 +3°C° 0 mm 4 mps 727 mmHg 86%
    07:00 +3°C° 0 mm 4 mps 727 mmHg 87%
    08:00 +3°C° 0.2 mm 4 mps 727 mmHg 87%
    09:00 +4°C° 0.2 mm 4 mps 727 mmHg 87%
    10:00 +4°C° 0.2 mm 4 mps 727 mmHg 87%
    11:00 +5°C° 0.3 mm 4 mps 727 mmHg 88%
    12:00 +5°C° 0.3 mm 4 mps 727 mmHg 89%
    13:00 +5°C° 0.3 mm 3 mps 727 mmHg 90%
    14:00 +5°C° 0.1 mm 3 mps 727 mmHg 91%
    15:00 +5°C° 0.1 mm 3 mps 727 mmHg 92%
    16:00 +5°C° 0.1 mm 3 mps 727 mmHg 93%
    17:00 +7°C° 0.1 mm 3 mps 727 mmHg 93%
    18:00 +7°C° 0.1 mm 3 mps 727 mmHg 93%
    19:00 +7°C° 0.1 mm 3 mps 727 mmHg 93%
    20:00 +7°C° 0.2 mm 3 mps 727 mmHg 93%
    21:00 +7°C° 0.2 mm 3 mps 727 mmHg 93%
    22:00 +7°C° 0.2 mm 3 mps 727 mmHg 93%
    23:00 +7°C° 0.3 mm 3 mps 727 mmHg 93%

    25 October, Thursday

    Time Temperature Precipitation Wind Pressure Humidity
    00:00 +7°C° 0.3 mm 3 mps 727 mmHg 93%
    01:00 +7°C° 0.3 mm 3 mps 727 mmHg 93%
    02:00 +7°C° 0 mm 3 mps 727 mmHg 94%
    03:00 +7°C° 0 mm 3 mps 727 mmHg 95%
    04:00 +5°C° 0 mm 3 mps 728 mmHg 96%
    05:00 +5°C° 0 mm 3 mps 728 mmHg 95%
    06:00 +5°C° 0 mm 3 mps 728 mmHg 94%
    07:00 +5°C° 0 mm 3 mps 728 mmHg 93%
    08:00 +7°C° 0 mm 3 mps 728 mmHg 90%
    09:00 +7°C° 0 mm 3 mps 729 mmHg 88%
    10:00 +8°C° 0 mm 3 mps 729 mmHg 85%
    11:00 +8°C° 0 mm 4 mps 729 mmHg 82%
    12:00 +8°C° 0 mm 4 mps 729 mmHg 78%
    13:00 +10°C° 0 mm 4 mps 729 mmHg 75%
    14:00 +10°C° 0.3 mm 3 mps 728 mmHg 79%
    15:00 +9°C° 0.3 mm 3 mps 728 mmHg 82%
    16:00 +9°C° 0.3 mm 3 mps 728 mmHg 86%
    17:00 +9°C° 0.1 mm 3 mps 728 mmHg 85%
    18:00 +9°C° 0.1 mm 3 mps 728 mmHg 83%
    19:00 +8°C° 0.1 mm 4 mps 727 mmHg 82%
    20:00 +8°C° 0 mm 4 mps 727 mmHg 80%
    21:00 +8°C° 0 mm 4 mps 727 mmHg 78%
    22:00 +8°C° 0 mm 4 mps 727 mmHg 76%
    23:00 +8°C° 0 mm 4 mps 726 mmHg 74%

    26 October, Friday

    Time Temperature Precipitation Wind Pressure Humidity
    00:00 +8°C° 0 mm 4 mps 726 mmHg 71%
    01:00 +8°C° 0 mm 4 mps 726 mmHg 69%
    02:00 +8°C° 0 mm 4 mps 726 mmHg 68%
    03:00 +8°C° 0 mm 4 mps 725 mmHg 67%
    04:00 +8°C° 0 mm 4 mps 725 mmHg 66%
    05:00 +8°C° 0 mm 4 mps 724 mmHg 66%
    06:00 +8°C° 0 mm 4 mps 724 mmHg 66%
    07:00 +7°C° 0 mm 4 mps 723 mmHg 66%
    08:00 +10°C° 0 mm 4 mps 723 mmHg 62%
    09:00 +10°C° 0 mm 5 mps 723 mmHg 58%
    10:00 +12°C° 0 mm 5 mps 722 mmHg 53%
    11:00 +13°C° 0 mm 5 mps 722 mmHg 52%
    12:00 +14°C° 0 mm 5 mps 722 mmHg 50%
    13:00 +15°C° 0 mm 5 mps 721 mmHg 49%
    14:00 +14°C° 0 mm 5 mps 721 mmHg 54%
    15:00 +13°C° 0 mm 4 mps 721 mmHg 59%
    16:00 +12°C° 0 mm 4 mps 721 mmHg 64%
    17:00 +11°C° 0.6 mm 4 mps 721 mmHg 69%
    18:00 +11°C° 0.6 mm 4 mps 720 mmHg 74%
    19:00 +10°C° 0.6 mm 4 mps 720 mmHg 80%
    20:00 +8°C° 0.8 mm 4 mps 720 mmHg 82%
    21:00 +8°C° 0.8 mm 4 mps 720 mmHg 85%
    22:00 +7°C° 0.8 mm 4 mps 720 mmHg 88%
    23:00 +7°C° 0.1 mm 3 mps 721 mmHg 88%

    27 October, Saturday

    Time Temperature Precipitation Wind Pressure Humidity
    00:00 +5°C° 0.1 mm 3 mps 721 mmHg 88%
    01:00 +4°C° 0.1 mm 3 mps 721 mmHg 88%
    02:00 +4°C° 0 mm 3 mps 721 mmHg 88%
    03:00 +3°C° 0 mm 3 mps 722 mmHg 88%
    04:00 +3°C° 0 mm 3 mps 722 mmHg 88%
    05:00 +3°C° 0 mm 3 mps 722 mmHg 87%
    06:00 +3°C° 0 mm 3 mps 722 mmHg 86%
    07:00 +2°C° 0 mm 3 mps 722 mmHg 85%
    08:00 +2°C° 0 mm 3 mps 722 mmHg 83%
    09:00 +3°C° 0 mm 4 mps 722 mmHg 82%
    10:00 +3°C° 0 mm 4 mps 722 mmHg 80%
    11:00 +3°C° 0.1 mm 4 mps 722 mmHg 79%
    12:00 +3°C° 0.1 mm 4 mps 722 mmHg 78%
    13:00 +3°C° 0.1 mm 4 mps 723 mmHg 78%
    14:00 +3°C° 0.2 mm 4 mps 723 mmHg 77%
    15:00 +1°C° 0.2 mm 4 mps 723 mmHg 77%
    16:00 +1°C° 0.2 mm 4 mps 724 mmHg 76%
    17:00 +1°C° 0.1 mm 4 mps 724 mmHg 77%
    18:00 0°C° 0.1 mm 4 mps 725 mmHg 78%
    19:00 -1°C° 0.1 mm 4 mps 725 mmHg 79%
    20:00 -1°C° 0.1 mm 4 mps 726 mmHg 78%
    21:00 -1°C° 0.1 mm 4 mps 726 mmHg 77%
    22:00 -1°C° 0.1 mm 5 mps 727 mmHg 76%
    23:00 -1°C° 0.1 mm 5 mps 727 mmHg 78%

    28 October, Sunday

    Time Temperature Precipitation Wind Pressure Humidity
    00:00 -2°C° 0.1 mm 5 mps 727 mmHg 79%
    01:00 -2°C° 0.1 mm 5 mps 728 mmHg 80%
    02:00 -2°C° 0.1 mm 5 mps 728 mmHg 80%
    03:00 -2°C° 0.1 mm 5 mps 729 mmHg 81%
    04:00 -2°C° 0.1 mm 5 mps 729 mmHg 81%
    05:00 -2°C° 0.1 mm 5 mps 730 mmHg 81%
    06:00 -2°C° 0.1 mm 5 mps 730 mmHg 81%
    07:00 -4°C° 0.1 mm 5 mps 730 mmHg 82%
    08:00 -2°C° 0.1 mm 5 mps 731 mmHg 80%
    09:00 -2°C° 0.1 mm 5 mps 731 mmHg 79%
    10:00 -3°C° 0.1 mm 6 mps 731 mmHg 78%
    11:00 -3°C° 0 mm 6 mps 732 mmHg 77%
    12:00 -2°C° 0 mm 6 mps 732 mmHg 76%
    13:00 -1°C° 0 mm 5 mps 732 mmHg 75%
    14:00 -1°C° 0.2 mm 5 mps 731 mmHg 78%
    15:00 -1°C° 0.2 mm 5 mps 731 mmHg 80%
    16:00 -1°C° 0.2 mm 5 mps 731 mmHg 83%
    17:00 -1°C° 0.4 mm 4 mps 731 mmHg 84%
    18:00 0°C° 0.4 mm 4 mps 730 mmHg 86%
    19:00 0°C° 0.4 mm 4 mps 730 mmHg 87%
    20:00 0°C° 0.4 mm 4 mps 730 mmHg 88%
    21:00 0°C° 0.4 mm 4 mps 730 mmHg 89%
    22:00 +1°C° 0.4 mm 4 mps 730 mmHg 90%
    23:00 +1°C° 0.2 mm 4 mps 730 mmHg 91%
    Show more